Flag for U.S.A. Weather past 2 weeks in Casper, Wyoming, U.S.A.

Now
41 °F

Overcast.


Feels Like: 36 °F
Forecast: 34 / 49 °F
Wind: 7 mph from East

Location: Natrona County International Airport

Current Time: Apr 27, 2015 at 1:33:15 PM

Latest Report: Apr 27, 2015 at 12:53 PM


Visibility: 10 mi

Pressure: 30.34 "Hg

Humidity: 80%

Dew point: 35 °F

Location of CasperLocation

Historic Weather in Casper — Graph

°F

Casper temperature yesterday

Maximum temperature yesterday: 40 °F (at 12:53 AM)
Minimum temperature yesterday: 35 °F (at 7:00 AM)
Average temperature yesterday: 37 °F

Past Weeks' High & Low Weather Summary

 TemperatureHumidityPressure
High76 °F (Apr 14, 1:53 PM)97% (Apr 17, 4:53 PM)30.36 "Hg (Apr 17, 4:53 PM)
Low25 °F (Apr 13, 1:53 AM)6% (Apr 14, 1:53 PM)29.43 "Hg (Apr 14, 8:53 PM)
Average44 °F62%29.92 "Hg
* Reported Apr 12 11:53 AM — Apr 27 11:53 AM, Casper, Weather by CustomWeather, © 2015

Note: Actual official high and low records may vary slightly from our data, if they occured in-between our weather recording intervals... More about our weather records

Advertising

Casper weather history for previous 24 hours

 ConditionsComfort  
Time TempWeatherWind HumidityBarometerVisibility
11:53 AM
Mon, Apr 27
38 °FOvercast.9 mph83%30.36 "Hg10 mi
10:53 AM37 °FMostly cloudy.8 mph86%30.36 "Hg10 mi
9:53 AM36 °FMostly cloudy.8 mph89%30.36 "Hg10 mi
8:53 AM34 °FOvercast.8 mph92%30.35 "Hg10 mi
7:53 AM34 °FFog.6 mph92%30.32 "Hg4 mi
6:53 AM33 °FMostly cloudy.6 mph92%30.31 "Hg7 mi
5:53 AM33 °FLight snow. Fog.5 mph92%30.27 "Hg5 mi
4:53 AM33 °FLight snow. Fog.6 mph92%30.25 "Hg3 mi
3:53 AM33 °FLight snow. Fog.6 mph92%30.24 "Hg4 mi
2:53 AM33 °FLight snow. Fog.6 mph92%30.23 "Hg4 mi
1:53 AM34 °FLight rain. Low clouds.7 mph92%30.21 "Hg10 mi
12:55 AM33 °FLight snow. Fog.6 mph96%30.18 "Hg2 mi
11:53 PM
Sun, Apr 26
35 °FLight rain. Fog.6 mph96%30.19 "Hg2 mi
11:01 PM36 °FLight rain. Fog.6 mph92%30.17 "Hg2 mi
9:53 PM35 °FLight rain. Fog.12 mph96%30.17 "Hg3 mi
8:53 PM36 °FLight rain. Fog.8 mph92%30.14 "Hg6 mi
8:02 PM36 °FLight snow. Fog.15 mph92%30.08 "Hg2 mi
7:53 PM36 °FLight snow. Fog.13 mph89%30.11 "Hg2 mi
6:53 PM36 °FLight rain. Fog.13 mph92%30.08 "Hg2 mi
5:53 PM37 °FMostly cloudy.18 mph89%30.04 "Hg10 mi
4:53 PM36 °FMostly cloudy.16 mph92%30.01 "Hg7 mi
3:53 PM36 °FFog.17 mph92%30.00 "Hg5 mi
3:04 PM37 °FLight rain. Fog.18 mph93%29.98 "Hg5 mi
2:53 PM37 °FLight rain. Fog.16 mph89%29.98 "Hg2 mi
1:53 PM39 °FOvercast.17 mph82%29.95 "Hg10 mi
Weather by CustomWeather, © 2015

See weather overviewHow to use our weather pages